User: anonymous   Login
Location: Unspecified
(0.0000°N, 0.0000°E)
Time: 01:00:37
(UTC+01:00)
Language:

PSLV R/B - Orbit

View from above orbital plane
View from above orbital plane
View from above satellite
View from above satellite

Ground track
Ground track

The orbit data is extracted from the following two-line orbital elements,

1 29713U 07001E   15063.89166061  .00002731  00000-0  33490-3 0  9997
2 29713 097.6682 052.4240 0024755 321.8942 038.0521 14.83711334440137
Epoch (UTC): 04 March 2015 21:23:59
Eccentricity: 0.0024755
inclination: 97.6682°
perigee height: 600 km
apogee height: 635 km
right ascension of ascending node: 52.4240°
argument of perigee: 321.8942°
revolutions per day: 14.83711334
mean anomaly at epoch: 38.0521°
orbit number at epoch: 44013

The dashed part of the orbit path shows where the satellite is in the earth's shadow,  

DLR